Royersford, PA

4:52 PM EST on February 21, 2017 (GMT -0500)
Pottstown Limerick

Weather History for KPTW - March, 2012

Change the Weather History Date:

Friday, March 9, 2012

  Actual Average (KRDG) Record (KRDG)
Temperature  
Mean Temperature 46 °F -  
Max Temperature 55 °F 43 °F 80 °F (2016)
Min Temperature 36 °F 27 °F 9 °F (1996)
Degree Days  
Heating Degree Days 20    
Moisture  
Dew Point 26 °F    
Average Humidity 51    
Maximum Humidity 89    
Minimum Humidity 33    
Precipitation  
Precipitation 0.06 in - - ()
Sea Level Pressure  
Sea Level Pressure 30.14 in    
Wind  
Wind Speed 12 mph (WNW)    
Max Wind Speed 20 mph    
Max Gust Speed 31 mph    
Visibility 10 miles    
Events Rain    
Averages and records for this station are not official NWS values.
T = Trace of Precipitation, MM = Missing Value Source: NWS Daily Summary

Daily Weather History Graph

Daily Weather History Graph

Search for Another Location

Airport or City:

Trip Planner

Search our weather history database for the weather conditions in past years. The results will help you decide how hot, cold, wet, or windy it might be!

Date:

Astronomy

Mar. 09, 2012 Rise Set
Actual Time 6:22 AM EST 6:03 PM EST
Civil Twilight 5:55 AM EST 6:30 PM EST
Nautical Twilight 5:24 AM EST 7:01 PM EST
Astronomical Twilight 4:52 AM EST 7:33 PM EST
Moon 8:00 PM EST (3/9) 6:39 AM EST (3/9)
Length of Visible Light 12h 34m
Length of Day
11h 40m
Full, 98% of the Moon is Illuminated
Mar 9
Full
Mar 14
Last Quarter
Mar 22
New
Mar 30
First Quarter
Apr 6
Full

Hourly Weather History & Observations

Time (EST) Temp. Windchill Dew Point Humidity Pressure Visibility Wind Dir Wind Speed Gust Speed Precip Events Conditions
12:42 AM 55.4 °F - 51.8 °F 88% 29.93 in 3.0 mi WNW 15.0 mph 29.9 mph 0.03 in Rain Rain
12:54 AM 55.0 °F - 52.0 °F 89% 29.94 in 4.0 mi WNW 11.5 mph 21.9 mph 0.04 in Rain Light Rain
1:54 AM 48.9 °F - 42.1 °F 77% 29.99 in 10.0 mi NW 9.2 mph 19.6 mph 0.01 in   Overcast
2:54 AM 46.9 °F - 37.0 °F 68% 30.01 in 10.0 mi WNW 11.5 mph 19.6 mph 0.01 in   Overcast
3:54 AM 46.9 °F - 35.1 °F 63% 30.03 in 10.0 mi West 10.4 mph 23.0 mph N/A   Scattered Clouds
4:54 AM 44.1 °F 37.7 °F 30.0 °F 58% 30.06 in 10.0 mi NW 12.7 mph 18.4 mph N/A   Clear
5:54 AM 43.0 °F 36.8 °F 28.9 °F 58% 30.09 in 10.0 mi NW 11.5 mph 20.7 mph N/A   Partly Cloudy
7:54 AM 41.0 °F 34.3 °F 21.0 °F 45% 30.15 in 10.0 mi WNW 11.5 mph 20.7 mph N/A   Clear
8:54 AM 41.0 °F 33.9 °F 19.0 °F 41% 30.17 in 10.0 mi WNW 12.7 mph 18.4 mph N/A   Clear
9:54 AM 43.0 °F 37.2 °F 19.9 °F 40% 30.17 in 10.0 mi WNW 10.4 mph 19.6 mph N/A   Clear
10:54 AM 43.0 °F 38.2 °F 21.0 °F 42% 30.16 in 10.0 mi WNW 8.1 mph - N/A   Clear
11:54 AM 45.0 °F 41.2 °F 21.0 °F 39% 30.14 in 10.0 mi WSW 6.9 mph - N/A   Scattered Clouds
12:54 PM 50.0 °F - 23.0 °F 35% 30.12 in 10.0 mi NW 12.7 mph 24.2 mph N/A   Mostly Cloudy
1:54 PM 50.0 °F - 21.9 °F 33% 30.10 in 10.0 mi WNW 16.1 mph 23.0 mph N/A   Overcast
2:54 PM 51.1 °F - 23.0 °F 33% 30.10 in 10.0 mi NW 19.6 mph 31.1 mph N/A   Overcast
3:54 PM 46.9 °F - 21.0 °F 36% 30.13 in 10.0 mi NW 15.0 mph 26.5 mph N/A   Scattered Clouds
4:54 PM 46.9 °F - 21.0 °F 36% 30.14 in 10.0 mi WNW 16.1 mph 29.9 mph N/A   Partly Cloudy
5:54 PM 43.0 °F 36.4 °F 25.0 °F 49% 30.19 in 10.0 mi NW 12.7 mph 21.9 mph N/A   Scattered Clouds
6:54 PM 41.0 °F 35.2 °F 23.0 °F 49% 30.23 in 10.0 mi WNW 9.2 mph - N/A   Mostly Cloudy
7:54 PM 39.0 °F 34.0 °F 21.9 °F 50% 30.25 in 10.0 mi NW 6.9 mph - N/A   Clear
8:54 PM 37.9 °F 32.7 °F 21.9 °F 53% 30.27 in 10.0 mi WNW 6.9 mph - N/A   Scattered Clouds
9:54 PM 36.0 °F 32.1 °F 18.0 °F 48% 30.29 in 10.0 mi NW 4.6 mph - N/A   Partly Cloudy
10:54 PM 37.0 °F 29.8 °F 15.1 °F 41% 30.31 in 10.0 mi NW 10.4 mph 19.6 mph N/A   Scattered Clouds
11:54 PM 36.0 °F 26.7 °F 16.0 °F 44% 30.32 in 10.0 mi NW 15.0 mph 23.0 mph N/A   Partly Cloudy